This is the latest recevied weather packets stored in our database for station/object W5GMO. If no packets are shown the sender has not sent any weather packets the latest 10 day(s).
| Time | Temp. | Humidity | Pressure | Rain* | Wind** | Luminosity | Snow |
|---|---|---|---|---|---|---|---|
| 1788205485 | 30.56° C | 1% | 1018.4 hPa | 0 mm | - | 199 W/m² | - |
| 1788205185 | 31.11° C | 1% | 1018.7 hPa | 0 mm | - | 186 W/m² | - |
| 1788204880 | 31.11° C | 1% | 1018.7 hPa | 0 mm | - | 188 W/m² | - |
| 1788204576 | 30.56° C | 1% | 1018.5 hPa | 0 mm | - | 201 W/m² | - |
| 1788204276 | 31.11° C | 1% | 1018.8 hPa | 0 mm | - | 177 W/m² | - |
| 1788203973 | 31.11° C | 1% | 1018.9 hPa | 0 mm | - | 149 W/m² | - |
| 1788203667 | 31.11° C | 1% | 1019.1 hPa | 0 mm | - | 154 W/m² | - |
| 1788203363 | 31.11° C | 1% | 1019.1 hPa | 0 mm | - | 158 W/m² | - |
| 1788203058 | 31.11° C | 1% | 1019.3 hPa | 0 mm | - | 168 W/m² | - |
| 1788202757 | 31.11° C | 1% | 1019.2 hPa | 0 mm | - | 194 W/m² | - |
| 1788202453 | 31.67° C | 1% | 1019.2 hPa | 0 mm | - | 243 W/m² | - |
| 1788202153 | 31.67° C | 1% | 1019.1 hPa | 0 mm | - | 255 W/m² | - |
| 1788201847 | 31.11° C | 1% | 1019.2 hPa | 0 mm | - | 303 W/m² | - |
| 1788201543 | 30.56° C | 1% | 1019.3 hPa | 0 mm | - | 359 W/m² | - |
| 1788201242 | 30.56° C | 1% | 1019.2 hPa | 0 mm | - | 291 W/m² | - |
| 1788200941 | 30.56° C | 1% | 1019.1 hPa | 0 mm | - | 221 W/m² | - |
| 1788200637 | 30.56° C | 1% | 1019.3 hPa | 0 mm | - | 189 W/m² | - |
| 1788200332 | 31.11° C | 1% | 1019.2 hPa | 0 mm | - | 192 W/m² | - |
| 1788200028 | 31.11° C | 1% | 1019.1 hPa | 0 mm | - | 223 W/m² | - |
| 1788199722 | 31.11° C | 1% | 1019.1 hPa | 0 mm | - | 271 W/m² | - |
| 1788199416 | 30.56° C | 1% | 1019.1 hPa | 0 mm | - | 288 W/m² | - |
| 1788199115 | 30.56° C | 1% | 1019.3 hPa | 0 mm | - | 281 W/m² | - |
| 1788198812 | 30.56° C | 1% | 1019 hPa | 0 mm | - | 297 W/m² | - |
| 1788198509 | 30.56° C | 1% | 1019 hPa | 0 mm | - | 321 W/m² | - |
| 1788198204 | 30.56° C | 1% | 1019.3 hPa | 0 mm | - | 333 W/m² | - |
* Rain latest hour (hover to see other rain measurements)
** Current wind speed in m/s (hover to see current wind gust speed)